Presure
115 173 162 147 149 118 84 126 138 150 155 131 125 133 143 101 80 153 105 177 166 155 168 167 87 126 99 124 137 132 144 96 95 110 124 113 124 94 94 92 96 139 103 122 112 101 110 108 114
141 132 151 135 144 155 151 132 118 116 125 145 154 109 94 124 143 146 142 194 183 162 157 150 166 169 131 139 90 120 94 91 93 121 92 104 86 122 150 106 96 95 117 110 128 116 112 103 124
167 155 147 113 132 127 129 114 133 121 141 146 157 134 139 158 115 143 102 167 101 144 160 144 158 94 82 154 110 143 86 102 108 129 98 105 124 94 116 85 90 94 90 99 115 101 113 108 140
176 189 98 121 126 112 77 123 92 129 132 160 142 142 152 144 124 129 91 144 120 90 180 164 151 171 175 174 91 168 146 148 162 96 130 101 102 85 147 131 105 142 132 108 116 107 96 127 164
190 120 127 135 118 117 125 174 131 96 85 106 151 142 151 124 144 129 130 134 89 87 90 161 89 158 160 109 161 92 168 82 90 88 105 104 119 92 90 98 100 147 109 103 124 96 107 132 123
130 126 119 126 134 116 120 81 124 158 170 116 126 121 139 149 143 148 78 157 138 139 80 88 87 85 85 89 91 93 93 89 94 103 143 85 106 95 96 99 94 92 95 96 99 126 128 132 132
125 126 116 122 136 142 145 127 83 136 105 106 178 155 122 129 119 154 153 145 134 81 180 88 90 90 86 109 91 106 91 90 91 88 99 90 93 102 119 97 158 154 103 106 127 134 103 106 126
125 113 135 126 161 134 138 126 144 130 143 140 156 149 131 119 128 154 151 123 124 140 158 192 183 173 166 92 140 89 96 98 85 91 100 94 126 103 103 119 98 105 159 100 98 95 114 97 160
114 115 125 138 155 134 79 95 149 83 90 159 145 147 147 134 123 98 138 80 128 146 165 193 129 173 177 142 142 151 92 89 89 128 89 91 97 92 106 138 99 92 151 158 140 144 163 123 126
120 117 124 124 133 148 135 151 122 116 154 138 153 124 105 96 109 137 140 115 129 139 135 128 142 159 170 183 116 95 114 154 150 121 130 126 124 110 129 120 99 151 145 153 161 143 138 162 113
141 136 127 129 128 118 131 72 90 96 127 257 153 136 125 128 136 129 156 139 137 155 152 153 129 158 169 160 126 148 89 90 95 112 125 110 153 147 103 126 172 167 169 158 171 169 162 117 146
123 126 134 121 130 133 167 125 95 128 112 166 173 130 146 200 256 136 103 166 137 138 148 197 144 126 131 175 180 160 159 164 176 191 155 132 91 114 137 159 157 143 158 125 145 163 162 161 84
132 152 137 141 128 131 196 222 135 137 157 164 181 133 108 82 90 89 104 145 153 144 159 143 187 180 157 176 178 183 183 153 161 77 178 170 149 122 143 157 108 148 90 160 128 157 136 80 83
133 144 415 379 319 218 187 227 195 119 226 263 282 81 108 126 142 168 203 122 143 226 150 148 131 152 147 180 149 174 163 177 175 172 161 167 79 115 156 158 99 158 151 150 140 73 97 96 100
383 378 137 385 75 129 290 294 284 276 291 281 277 142 130 138 136 76 156 141 149 148 157 159 153 139 140 185 184 182 187 190 164 181 140 157 160 157 143 154 155 127 148 75 157 144 73 80 78
159 216 420 433 318 285 281 278 295 276 289 280 272 184 132 140 134 188 133 169 141 161 200 141 147 159 181 162 132 162 162 168 169 161 93 94 162 137 75 134 74 75 152 72 119 91 99 154 154
252 408 484 412 332 286 290 286 281 272 271 278 261 235 125 139 133 203 145 139 143 150 150 193 201 148 143 178 160 142 161 176 161 178 177 182 176 172 156 165 144 162 168 163 158 165 155 159 163
400 427 499 365 319 292 233 266 269 273 255 284 258 252 138 130 141 147 188 140 146 191 182 162 165 179 165 142 137 133 150 105 160 182 163 160 157 169 172 167 170 162 166 135 172 165 160 183 168
440 488 471 141 148 165 279 269 267 256 262 252 143 141 127 126 223 182 191 229 149 116 167 158 163 151 153 150 200 175 140 194 162 188 154 168 161 157 154 156 154 161 161 168 136 168 154 136 145
358 450 441 282 139 136 190 281 264 271 177 255 151 137 137 187 239 150 145 165 137 173 103 173 149 172 178 147 189 169 111 177 159 170 164 153 152 164 154 156 155 181 185 182 196 186 197 148 162
278 159 326 420 292 227 290 279 283 268 258 265 234 254 289 275 203 200 180 195 187 185 133 143 145 170 166 128 132 159 156 151 192 189 163 185 198 182 158 156 139 209 211 176 125 156 182 145 175
407 389 190 379 294 288 286 291 298 270 268 275 254 267 253 295 244 223 164 193 157 165 104 146 185 192 169 155 115 140 160 165 158 167 185 95 131 187 158 190 174 197 209 180 136 188 165 169 183
383 365 380 356 201 164 277 271 265 257 249 241 274 277 277 268 269 233 194 203 226 148 154 151 127 165 151 207 164 163 176 181 160 188 121 167 142 147 127 190 170 169 167 169 175 183 193 203 167
359 355 339 341 339 184 275 281 278 269 251 265 260 249 245 247 267 203 178 200 193 141 170 168 222 148 190 172 145 136 187 168 167 157 148 134 155 165 151 135 184 149 183 191 185 167 180 179 184
346 335 339 352 346 289 281 271 212 240 256 245 247 266 269 279 262 164 135 187 202 199 190 180 140 161 175 173 168 175 178 155 150 166 164 153 167 157 169 162 176 198 190 191 177 174 193 199 197
347 332 330 336 357 316 278 266 180 241 268 257 228 248 254 250 273 230 194 206 202 220 162 189 196 172 191 164 173 168 166 159 165 166 190 204 158 151 170 187 195 196 169 175 213 224 176 170 154
320 330 327 334 340 315 278 278 271 240 277 255 253 252 254 257 245 292 162 188 208 210 199 129 126 157 175 213 172 177 159 175 176 175 198 177 163 218 191 177 198 164 152 169 169 178 170 166 157
321 326 314 331 334 292 298 274 270 269 259 261 268 260 273 183 259 262 204 232 235 212 171 165 163 155 188 171 152 167 168 194 184 137 160 195 212 161 170 174 173 172 170 171 175 155 171 175 173
327 306 306 321 320 288 288 271 266 260 272 261 249 249 251 245 256 238 268 274 236 190 205 211 204 193 174 197 189 189 175 170 172 174 183 172 177 138 168 174 165 168 172 175 177 175 169 170 165
346 311 311 308 318 321 286 266 278 270 266 262 246 248 251 250 253 249 249 268 265 130 223 231 199 195 145 206 164 183 157 177 190 170 172 161 167 171 172 173 187 171 165 180 186 174 186 166 179
Wind_Speed
35 48 52 46 41 37 11 40 52 49 53 43 30 29 39 30 22 39 22 57 59 54 57 58 14 37 24 38 41 41 43 16 14 24 33 23 31 10 11 11 16 31 21 23 21 18 24 24 25
59 48 52 41 36 42 37 51 55 46 41 46 49 25 27 35 35 43 41 62 56 59 57 52 60 60 37 47 14 35 16 14 16 33 14 20 10 28 41 21 19 17 25 23 29 27 24 24 28
37 49 52 40 40 42 51 64 62 11 54 46 49 33 34 42 27 41 28 48 28 44 63 48 58 21 12 52 31 41 13 24 28 40 17 23 33 16 27 13 13 18 14 21 28 23 27 28 36
48 59 37 39 47 38 13 54 10 54 34 56 31 32 41 37 33 38 26 42 38 23 63 65 54 63 62 59 20 54 51 53 51 20 43 24 25 16 46 40 24 38 36 27 29 24 19 33 43
64 42 45 50 45 52 39 54 63 16 15 17 41 33 40 36 39 35 38 39 26 25 26 63 24 59 58 31 55 24 56 16 19 18 28 27 34 21 21 24 24 39 25 25 33 22 27 39 34
41 47 45 51 44 45 53 19 36 59 55 35 26 29 34 43 41 46 24 60 41 47 24 29 28 27 26 28 28 24 28 24 26 28 54 21 30 26 27 28 26 24 26 26 25 38 38 38 43
49 52 44 48 57 53 57 61 23 53 40 30 48 50 40 43 36 53 53 51 42 25 65 32 34 36 27 40 30 35 30 28 28 25 31 27 29 32 36 30 49 48 33 32 38 46 30 29 41
42 36 47 55 59 62 62 56 68 59 63 55 43 46 44 46 48 57 49 34 36 44 57 70 66 68 67 33 41 30 36 37 26 32 36 33 45 35 36 40 33 37 48 32 30 29 34 29 50
40 40 49 59 64 53 24 40 46 31 22 58 56 50 50 49 44 33 48 28 42 53 60 73 46 68 65 55 55 55 34 31 32 43 31 34 38 29 40 46 34 26 51 51 52 51 52 43 45
48 43 51 45 56 59 43 40 57 30 65 39 53 52 40 37 41 54 49 42 49 49 44 42 50 61 65 66 46 38 47 59 55 44 51 48 46 44 50 45 34 53 48 47 53 55 48 54 37
41 67 60 59 31 45 56 18 27 19 32 82 59 61 51 51 57 51 62 54 51 61 56 58 43 56 67 63 46 58 36 37 38 48 48 45 57 55 36 49 52 52 50 53 48 51 55 37 56
53 61 63 41 46 57 67 47 34 46 33 58 57 62 67 91 75 61 43 73 52 56 60 75 54 47 42 73 67 64 65 65 59 57 58 48 32 41 51 50 56 53 47 52 51 53 54 55 26
46 68 72 82 46 43 62 62 47 55 71 64 64 68 46 21 27 28 36 57 66 60 70 55 77 72 60 73 66 66 68 60 64 20 60 57 46 46 56 59 37 58 34 56 43 56 43 26 32
47 51 37 52 89 65 71 77 66 36 75 87 96 12 30 57 65 73 73 49 57 79 65 65 42 55 54 78 52 68 64 65 70 66 64 52 19 40 60 61 35 60 61 60 56 18 28 29 40
32 36 75 60 21 49 88 84 86 93 88 88 99 73 62 66 61 24 70 61 62 63 75 72 66 49 49 74 76 71 71 68 65 65 56 63 61 61 59 65 66 51 59 22 63 59 25 35 37
53 60 41 50 96 96 95 89 96 90 82 88 97 77 59 68 56 89 57 80 60 74 77 44 50 62 62 64 45 60 61 62 65 62 32 32 57 57 23 56 22 24 65 24 50 39 37 62 61
53 40 40 59 102 97 88 92 92 95 97 97 95 81 54 65 59 93 64 59 65 68 67 74 70 60 54 62 54 54 57 66 63 68 64 67 67 67 68 66 65 67 68 70 67 68 65 67 68
44 41 34 51 94 100 70 95 91 88 99 90 102 71 62 55 67 67 82 63 68 85 77 83 80 75 76 55 53 57 60 47 64 67 64 66 68 69 69 70 71 70 72 54 69 70 67 65 69
37 27 37 39 45 39 105 103 103 97 92 92 50 65 54 56 105 84 98 88 70 49 50 74 80 66 69 65 71 67 63 69 66 74 71 70 71 76 76 76 73 75 72 73 53 70 65 56 59
20 25 39 46 46 39 59 108 103 99 64 97 65 55 61 76 105 63 67 82 62 90 40 87 65 70 67 56 57 60 62 67 67 70 73 76 76 79 73 74 67 80 84 78 74 75 69 56 66
24 35 44 52 92 71 100 96 109 100 95 96 79 96 89 94 89 93 92 100 76 84 52 59 69 75 83 57 56 72 74 66 58 66 66 80 75 76 63 56 51 73 74 68 51 57 70 59 71
37 46 37 67 99 94 97 97 103 101 102 84 90 94 85 87 102 100 77 97 77 80 55 62 85 73 79 69 49 63 74 72 70 76 73 33 50 80 70 74 79 73 68 74 58 77 70 71 75
45 52 54 74 48 44 95 94 94 96 92 88 79 89 85 90 96 105 99 102 92 64 71 68 66 89 71 64 81 77 77 77 82 68 57 86 50 51 55 80 75 74 73 75 77 71 77 80 69
53 64 70 83 92 45 99 97 97 105 94 89 84 85 86 90 94 94 78 97 96 64 84 86 84 84 84 85 79 71 80 81 80 78 74 59 70 79 56 57 82 60 84 83 82 64 72 74 74
63 68 75 70 79 111 106 101 69 77 98 91 90 81 75 94 91 70 60 98 105 104 91 104 60 78 95 100 98 94 90 82 79 90 82 70 83 73 81 76 76 93 84 87 74 69 82 84 78
69 72 67 69 68 98 105 94 51 86 98 99 82 81 81 83 90 97 92 104 111 110 79 108 107 93 101 82 91 92 91 89 96 98 101 94 79 69 87 94 98 95 72 75 92 80 75 75 66
57 67 62 67 69 95 101 101 101 85 94 95 90 87 86 86 88 83 77 99 111 117 115 77 72 68 95 91 94 98 86 103 104 101 113 95 85 96 95 91 100 76 65 76 77 82 77 74 73
61 58 54 63 64 90 101 97 94 98 88 85 85 91 86 54 85 90 96 109 117 115 88 91 91 84 103 91 83 97 98 105 103 68 85 103 103 86 92 94 91 86 84 82 84 72 84 85 81
55 51 55 57 67 90 98 93 91 87 91 90 87 88 86 85 89 83 89 91 109 96 105 113 113 106 94 111 104 109 106 101 102 103 96 94 99 64 86 91 84 86 91 89 88 86 86 86 83
41 58 57 55 59 68 92 89 100 95 93 92 85 88 93 87 89 86 86 87 95 59 106 111 107 107 73 109 89 110 84 104 112 96 100 90 94 95 95 94 99 92 88 93 97 89 95 87 95
Wind_Direction
247 272 227 234 232 234 205 239 238 238 242 237 227 232 240 233 215 237 219 227 235 248 237 241 234 239 228 246 233 241 234 241 236 250 267 271 272 285 295 300 305 271 308 283 300 319 312 317 309
236 244 237 237 225 221 232 228 245 239 238 239 239 231 235 238 239 246 239 233 230 242 245 249 241 241 240 243 246 248 242 248 251 244 248 263 261 264 266 280 299 303 290 300 287 289 303 320 302
258 250 232 232 235 231 226 249 236 188 240 244 240 236 237 243 233 245 237 241 229 227 241 247 246 233 238 239 238 236 260 249 254 251 253 257 262 268 269 286 281 290 294 302 295 309 301 309 293
287 281 216 239 235 247 207 255 274 266 230 248 248 243 247 242 233 238 226 244 232 218 229 237 250 242 242 241 256 238 247 241 238 248 260 257 271 279 263 272 276 268 280 289 293 296 302 299 289
283 234 238 228 247 248 210 234 261 131 163 235 246 252 248 245 243 242 243 246 221 219 220 240 232 245 244 239 242 256 238 252 256 255 255 261 265 272 280 275 282 268 282 288 295 295 298 297 304
244 230 242 236 223 242 257 219 226 244 243 248 234 240 248 250 245 244 229 246 243 233 230 224 225 230 237 244 244 243 254 259 261 257 250 263 271 271 275 273 279 285 285 284 289 294 282 290 299
227 230 237 244 235 221 222 246 239 238 245 232 238 247 238 242 240 251 245 248 248 237 235 232 228 229 230 243 241 243 249 256 263 261 260 271 274 269 273 274 266 268 275 276 278 282 286 288 299
226 238 231 236 225 240 241 257 237 258 244 245 238 240 236 237 242 246 242 235 241 246 247 230 232 234 240 238 255 248 243 245 254 259 257 261 258 264 268 265 276 269 266 276 281 285 289 290 281
240 250 246 239 232 244 204 226 240 212 207 238 237 234 237 242 246 233 238 251 245 247 239 230 247 236 238 244 249 250 248 251 257 252 261 262 260 266 266 264 271 280 269 268 276 274 274 294 299
251 248 251 256 251 241 239 230 230 255 248 254 232 242 233 236 238 242 244 244 239 248 245 243 233 236 238 238 244 247 250 248 250 252 253 254 260 264 265 265 272 267 268 267 268 276 280 274 295
241 235 256 256 254 253 257 229 222 219 254 219 227 240 244 237 236 240 233 238 242 246 247 247 241 239 239 238 241 247 248 249 251 253 254 260 256 263 263 266 263 264 265 267 268 269 271 284 281
253 253 244 244 269 257 244 248 194 255 239 236 226 249 232 224 219 234 246 234 238 240 242 226 244 236 242 240 238 244 247 248 250 248 256 254 258 257 266 261 265 270 268 277 273 269 270 274 298
244 250 249 248 251 267 232 215 248 245 238 231 229 241 238 235 227 226 235 232 237 238 240 244 233 235 245 242 239 241 243 253 251 257 249 254 258 264 266 264 274 270 279 268 271 270 279 302 301
269 253 225 203 195 222 234 215 230 220 213 207 207 216 216 236 237 226 221 239 234 216 242 245 239 249 247 238 247 242 245 244 247 251 255 253 271 265 263 264 274 266 269 271 274 291 279 286 292
268 250 260 215 252 257 197 189 184 199 196 203 208 230 239 232 236 247 228 236 233 234 238 241 244 239 244 237 239 243 242 245 249 249 258 256 258 259 262 264 265 268 270 285 271 274 290 295 295
276 267 238 216 188 195 202 200 194 202 200 202 210 216 233 235 236 217 231 225 238 234 222 226 243 237 231 245 246 244 250 248 250 253 260 264 257 259 263 263 274 281 268 286 274 283 280 277 279
271 262 256 209 187 193 182 180 195 197 205 199 214 208 232 234 237 210 232 231 237 237 238 231 232 240 244 240 246 249 249 245 252 250 253 255 259 261 260 261 264 263 264 264 268 269 274 276 277
271 261 236 214 191 186 192 197 189 189 210 199 211 205 233 235 235 233 210 236 233 211 218 238 237 239 245 244 245 247 248 256 250 250 252 253 255 260 261 261 262 262 262 274 266 267 273 275 277
270 211 213 245 239 221 190 199 201 208 209 213 215 227 229 233 201 214 213 192 229 240 213 238 237 245 245 244 241 245 248 250 253 251 252 254 253 253 255 257 260 259 263 263 275 268 274 278 277
218 187 200 214 244 256 214 196 205 203 212 211 217 228 231 219 199 212 231 221 236 224 240 229 243 227 232 241 237 242 250 243 248 248 250 252 255 256 257 259 263 261 262 264 267 268 270 277 276
224 244 200 191 190 203 189 195 195 201 207 207 202 207 200 198 208 207 215 212 209 214 237 246 244 231 238 243 251 246 246 249 243 243 252 251 249 256 257 265 269 261 261 268 276 272 268 277 276
164 177 230 188 188 189 191 190 189 199 204 203 208 209 199 197 196 201 217 210 220 224 250 235 219 212 238 243 252 255 249 247 249 250 247 256 265 253 259 258 262 262 263 266 272 264 275 278 277
172 177 176 186 212 222 192 195 193 200 206 211 203 207 203 199 199 198 210 205 200 231 230 239 242 238 242 215 237 237 241 238 250 247 258 257 270 269 267 259 262 266 268 269 272 273 271 268 279
166 171 181 188 185 215 195 193 196 196 206 204 211 209 202 200 202 204 213 208 211 230 220 223 217 234 217 229 243 249 229 244 247 253 261 259 267 263 264 262 260 268 263 264 270 276 281 283 286
171 178 186 187 186 190 192 194 198 195 203 207 209 203 202 201 199 217 228 214 210 212 207 226 237 241 234 233 238 232 227 254 257 250 252 268 258 272 274 271 269 262 264 268 277 281 280 277 279
175 183 184 186 189 189 192 196 199 202 199 207 212 216 217 209 207 202 209 207 208 207 231 225 223 236 230 239 236 242 244 252 250 253 235 234 261 266 271 266 264 267 274 275 270 267 280 280 279
187 186 184 188 188 188 191 194 195 203 202 206 211 216 216 219 208 211 217 215 209 212 218 241 245 237 235 213 238 238 250 243 248 252 239 258 264 242 261 269 261 275 278 276 278 279 279 277 282
184 183 186 188 192 189 189 194 196 200 205 204 202 212 209 214 213 215 212 208 208 213 222 228 232 238 233 239 242 244 246 238 245 260 260 251 244 264 263 265 268 272 273 274 274 277 279 280 280
184 186 191 192 190 192 190 195 198 203 201 203 208 213 216 217 222 219 217 212 213 219 217 218 223 229 235 231 234 236 242 248 251 252 254 258 258 269 265 265 269 270 271 272 273 275 277 279 283
183 190 196 195 198 192 193 199 200 202 204 206 210 212 218 217 223 223 217 217 213 243 219 218 225 230 240 230 243 236 250 245 247 254 255 263 264 265 264 265 264 268 271 271 273 273 274 278 278